Theta_e
312 312 311 311 309 308 300 289 283 296 297 285 284 285 289 295 294 297 293 294 292 290 292 290 290 291 295 302 301 295 297 288 292 296 300 305 301 297 291 288 287 288 292 292
311 312 311 310 308 307 294 287 286 296 295 284 284 289 292 294 293 293 292 292 294 294 290 287 292 294 301 300 297 296 298 289 285 288 292 295 297 298 299 297 289 292 288 290
311 311 311 309 308 307 295 289 284 287 289 290 287 285 287 288 295 293 293 292 295 292 290 290 289 292 298 298 298 306 297 288 288 287 289 294 293 297 299 296 291 294 294 292
311 312 311 310 308 307 298 293 285 286 282 284 286 287 287 286 289 293 293 289 291 290 284 288 288 292 292 296 301 296 292 285 288 292 295 296 297 297 299 295 297 294 297 295
311 311 311 310 309 306 296 291 289 292 288 290 283 286 286 286 288 289 289 289 289 289 286 288 285 289 288 289 293 290 290 287 289 290 296 297 296 298 300 300 300 297 296 294
310 310 311 310 308 304 296 297 298 293 289 288 285 282 285 286 289 291 293 291 288 287 290 292 292 292 292 291 290 288 287 287 286 284 292 293 292 297 299 300 302 301 296 297
310 310 311 310 309 305 299 298 297 290 285 287 286 288 288 287 288 288 291 291 289 293 295 295 292 291 291 293 292 293 288 287 287 284 288 284 296 302 304 301 301 301 299 300
310 310 310 310 310 309 297 296 297 293 285 288 288 287 287 288 288 287 288 290 293 295 291 286 284 284 285 289 293 292 294 290 286 284 284 291 297 301 300 298 298 303 303 303
309 310 310 309 310 309 298 296 298 296 288 286 290 286 288 285 285 287 289 293 293 291 287 286 279 278 285 284 289 294 293 293 291 287 284 284 294 306 311 306 296 305 304 304
309 309 309 309 309 309 299 296 301 297 290 291 291 287 285 291 287 285 287 288 289 290 285 283 281 281 287 282 285 284 287 289 287 288 287 290 301 310 314 294 298 309 309 305
309 309 309 309 309 309 302 298 299 296 291 291 293 294 290 289 290 286 286 286 289 284 284 285 286 284 286 284 288 288 290 291 288 289 290 287 310 311 306 308 317 316 313 313
310 309 310 310 309 309 306 297 302 302 295 292 295 296 297 296 294 289 287 286 286 289 286 286 287 285 288 285 283 293 289 295 292 295 296 305 309 313 315 317 318 321 316 321
310 310 310 310 310 310 307 300 299 295 293 293 291 290 296 298 297 299 290 291 293 291 296 292 289 287 289 286 287 290 296 300 298 301 306 309 313 315 315 316 318 321 325 326
311 311 310 310 310 310 309 300 299 299 294 288 288 296 292 297 297 297 297 295 294 297 297 291 288 287 293 288 291 288 295 299 297 301 307 310 314 314 314 318 318 320 321 321
311 311 311 310 310 310 308 304 302 302 294 289 289 295 295 296 295 295 296 294 293 292 291 290 289 293 292 292 292 290 298 299 297 297 308 308 310 314 315 315 315 316 318 319
311 311 311 311 310 310 300 293 300 302 302 292 286 291 293 295 298 299 295 294 293 293 291 290 293 298 293 286 286 298 304 306 308 306 312 311 313 315 317 314 316 318 319 320
310 310 310 310 310 305 296 294 301 305 302 292 288 289 296 299 298 297 293 294 293 293 293 293 293 294 295 288 286 298 304 306 309 312 312 309 312 312 316 316 316 316 317 319
310 310 311 310 309 307 302 305 306 305 298 295 286 288 292 301 295 295 300 297 297 298 297 297 294 295 295 289 300 304 307 308 312 312 314 313 314 315 316 315 316 315 314 314
310 311 309 305 303 298 300 310 307 305 298 288 287 285 287 300 297 299 299 299 292 299 294 294 295 294 292 299 301 304 309 310 310 311 313 313 312 313 314 314 314 312 312 314
309 303 300 296 299 310 309 302 296 295 295 293 285 288 286 295 297 295 297 298 293 287 290 297 292 291 299 303 306 308 311 312 312 309 308 310 312 313 313 313 314 314 312 313
299 294 295 299 308 305 301 293 292 291 285 286 288 289 288 298 292 294 298 293 291 285 293 291 288 288 299 305 308 310 312 313 313 313 312 311 311 311 312 313 314 314 314 314
300 302 304 299 301 296 292 291 293 291 289 296 292 296 295 299 301 297 298 292 293 287 298 289 285 292 302 304 308 310 311 312 313 315 314 315 314 313 312 314 314 315 315 317
301 298 299 295 295 292 288 287 292 295 299 300 300 299 302 303 302 299 298 293 291 298 288 284 291 302 305 307 309 311 313 314 314 314 315 315 314 315 313 311 311 314 315 315
298 294 290 291 291 296 296 297 298 302 301 300 300 299 297 301 298 299 294 294 294 288 285 288 299 303 305 307 309 310 310 311 312 312 312 312 311 310 311 311 310 312 314 316
296 296 289 294 298 299 300 301 301 303 304 300 299 299 299 295 294 296 294 291 286 288 288 298 302 304 305 306 306 306 305 305 306 307 308 307 307 307 308 310 311 312 313 314
302 301 297 299 296 297 298 298 298 304 304 301 300 297 296 294 295 292 290 288 287 294 299 302 304 304 305 305 305 302 302 301 301 300 301 301 302 304 306 308 308 308 309 311
302 299 299 297 296 295 296 298 298 302 302 297 298 294 293 298 292 292 296 293 297 301 302 304 304 303 304 306 304 302 301 299 299 299 299 299 300 301 301 301 304 304 305 306
Wind_Speed
20 20 19 18 18 16 6 3 4 5 6 6 3 4 14 7 16 17 6 4 6 4 5 2 2 5 6 13 10 6 7 3 15 18 6 15 15 11 9 7 13 8 13 12
20 20 18 15 14 10 2 4 4 6 5 5 6 10 10 12 15 8 8 4 5 4 2 3 2 5 7 17 12 6 9 5 1 7 3 4 11 12 17 15 2 20 10 7
20 19 16 12 12 8 3 3 6 6 5 3 3 6 5 11 11 14 7 3 6 5 4 1 5 7 4 13 10 10 3 3 4 8 5 2 8 9 17 17 12 16 18 5
19 18 15 11 9 6 2 0 3 1 5 4 5 5 5 10 7 10 8 4 7 3 1 2 0 5 10 7 7 5 5 3 4 7 15 16 15 14 26 21 22 17 14 14
18 16 13 11 9 3 1 1 2 1 4 6 4 5 1 3 5 4 7 8 11 4 4 3 5 4 3 6 5 6 4 4 5 6 11 13 17 18 25 30 23 13 11 8
18 17 14 11 7 4 2 3 2 3 2 4 3 4 2 12 13 5 6 10 15 4 4 4 9 9 8 9 5 2 2 2 5 5 10 12 12 28 21 16 17 19 20 9
18 17 15 12 10 8 3 2 1 3 4 5 6 9 13 12 12 11 14 14 6 4 6 8 8 8 14 16 15 14 5 4 3 6 6 9 13 9 16 20 12 8 5 12
18 17 17 13 10 7 3 2 2 3 5 7 10 9 12 7 5 14 15 16 5 5 5 4 5 6 3 14 21 19 20 7 3 4 4 11 16 9 4 10 11 7 16 11
18 18 15 15 10 10 3 3 3 3 4 4 7 3 9 10 5 5 5 9 10 2 3 3 5 4 4 5 6 22 20 18 7 4 5 8 2 13 20 15 18 18 13 12
17 17 17 16 14 9 3 3 4 2 4 6 8 8 4 3 5 4 6 6 4 2 1 2 3 5 3 6 5 5 10 9 12 10 6 10 6 21 10 7 13 6 10 12
17 17 17 16 15 12 1 4 5 4 4 10 10 13 12 6 5 5 3 6 2 2 2 3 3 4 5 5 7 3 9 10 10 10 9 11 10 10 9 12 22 14 8 8
19 19 18 17 16 13 5 3 2 3 4 9 5 12 14 18 18 6 4 5 2 3 2 2 3 2 5 3 6 4 11 7 11 8 8 3 1 4 13 16 16 15 11 4
22 22 21 19 17 15 10 3 2 1 4 9 5 10 13 12 19 15 8 6 8 5 4 3 4 8 3 4 5 12 9 5 6 7 4 4 6 11 14 18 8 10 11 7
24 23 22 21 18 15 12 4 4 3 2 5 7 3 5 9 11 16 22 15 3 0 3 3 4 4 5 4 6 14 13 7 11 6 3 4 9 12 17 15 8 14 17 17
25 24 23 20 18 15 8 5 6 8 5 4 7 14 7 4 9 15 17 18 15 7 4 5 4 4 5 3 6 9 8 11 12 6 5 5 8 10 17 9 9 11 16 19
27 24 21 19 16 10 1 4 1 6 5 2 5 5 5 3 7 10 11 15 9 7 4 4 5 5 5 4 4 10 11 4 6 6 4 13 9 4 9 4 11 12 17 15
28 24 20 17 12 4 4 4 3 9 3 2 4 5 4 5 4 1 3 8 4 5 3 5 5 5 6 4 6 14 12 5 4 8 12 12 5 7 11 11 10 12 15 13
28 26 18 12 8 5 4 5 11 4 2 2 3 4 5 4 4 3 1 4 3 3 3 2 3 3 5 6 4 13 12 7 11 8 11 11 5 6 8 4 9 13 11 11
29 19 6 4 2 1 2 8 6 4 2 2 2 2 3 5 3 2 3 2 2 2 3 2 3 4 4 10 9 12 4 14 12 14 14 6 8 4 6 9 11 10 8 8
18 2 3 3 2 3 7 3 2 2 1 1 3 2 4 3 2 2 1 1 2 2 3 3 2 4 12 13 13 9 3 20 18 17 10 10 10 10 4 8 7 6 7 7
5 5 3 4 7 2 1 2 2 2 3 3 4 6 3 5 3 1 1 1 0 3 2 4 5 5 11 13 11 16 15 18 16 12 8 7 8 10 12 11 7 7 9 7
3 6 5 3 3 2 4 4 2 1 4 3 4 4 5 3 3 0 1 2 2 3 3 3 6 5 8 15 14 14 14 17 18 19 15 14 12 8 8 9 9 7 6 6
0 1 3 4 4 5 6 7 4 6 3 4 4 3 1 1 1 1 3 6 5 3 4 5 4 16 11 14 10 10 10 14 16 15 14 11 9 8 9 9 6 6 8 9
4 5 9 6 6 7 5 12 9 8 4 9 2 1 3 3 4 3 4 4 4 5 7 7 8 12 13 10 8 14 16 13 13 12 11 9 8 8 10 9 8 10 12 9
5 6 8 6 5 6 10 6 5 13 11 2 2 4 4 5 5 5 5 6 6 5 5 6 9 12 12 11 13 14 15 15 14 14 13 12 11 12 12 11 11 11 9 10
5 8 6 8 6 13 16 14 12 13 13 3 4 6 5 8 5 7 8 5 7 6 5 7 9 13 14 12 13 13 15 16 15 14 14 14 14 12 11 14 13 12 11 10
7 4 3 3 4 5 6 10 10 8 9 8 5 8 8 4 6 7 5 5 5 4 6 6 8 11 11 11 12 13 14 14 14 14 14 13 13 16 15 14 11 12 12 10
Wind_Direction
330 329 330 335 331 331 36 21 340 291 9 45 0 5 317 277 289 308 280 271 266 273 43 342 280 258 35 19 350 22 332 282 241 225 224 200 205 197 159 157 222 246 233 233
326 327 328 333 329 346 350 329 261 306 64 56 1 334 331 344 3 350 337 329 49 3 84 346 68 316 42 12 15 10 342 305 297 336 313 292 209 204 203 219 118 222 215 255
320 324 329 331 334 339 86 6 330 324 26 142 23 333 330 345 330 300 347 326 63 46 11 13 312 301 2 340 335 5 62 301 241 258 277 307 212 226 208 202 224 227 227 226
322 325 329 331 333 329 89 157 268 236 311 343 321 321 285 341 349 338 316 45 59 55 322 308 209 12 329 341 352 19 86 250 283 299 299 285 262 245 222 216 218 215 226 203
334 334 333 331 337 133 100 257 291 317 259 277 295 303 320 348 331 328 310 351 340 324 217 191 285 291 228 264 322 350 6 281 341 290 265 260 261 251 245 222 219 229 223 217
343 339 334 332 339 132 228 243 253 259 338 299 275 239 359 320 318 271 269 297 315 278 242 278 254 227 222 233 277 296 300 200 3 275 316 323 269 235 246 249 215 204 222 196
339 338 333 333 333 181 195 261 199 243 281 277 275 290 303 292 293 288 288 302 282 289 314 277 264 229 219 232 231 221 218 174 158 267 306 224 267 198 231 237 245 207 136 189
336 333 338 332 321 318 165 217 212 258 272 265 282 291 303 327 285 276 266 274 240 304 307 315 335 315 282 227 226 216 209 202 220 223 238 292 297 316 209 187 230 209 198 209
334 334 328 332 333 336 131 217 177 253 283 236 244 309 294 286 274 279 282 339 303 143 222 229 209 215 293 277 267 211 201 204 207 187 228 240 112 340 332 301 231 199 185 193
325 325 325 323 319 323 139 255 191 219 263 249 243 240 217 258 279 263 284 273 308 109 258 235 234 230 236 265 259 160 169 189 216 245 258 287 320 333 303 167 243 168 180 194
313 313 314 314 318 317 97 249 193 188 247 264 235 238 251 238 220 234 305 339 359 24 240 240 269 236 236 258 250 250 183 165 181 217 213 253 4 359 358 311 302 275 149 173
302 307 305 302 303 298 306 249 226 170 238 265 252 246 240 234 226 232 216 228 338 239 201 239 285 296 272 300 279 272 236 191 169 214 221 208 315 323 304 301 284 294 118 116
299 299 302 298 290 291 268 223 212 207 266 274 257 236 247 231 230 217 234 238 222 223 199 204 223 250 286 264 266 269 273 185 206 178 234 265 29 352 332 318 331 329 45 62
298 293 293 292 292 281 275 212 180 207 271 279 279 302 247 213 198 203 213 228 247 257 143 206 226 239 216 243 291 278 265 231 213 210 229 278 41 2 327 308 6 48 51 56
298 292 290 289 284 280 270 224 211 203 202 275 299 302 268 238 188 208 206 212 223 241 243 221 231 222 238 233 250 243 235 239 208 221 193 104 62 331 304 283 54 53 61 55
302 300 298 290 285 291 71 315 89 173 179 275 292 285 289 301 213 233 203 201 198 205 204 227 220 182 195 250 239 279 278 282 253 188 161 109 104 309 289 173 77 65 71 63
310 308 296 281 268 195 169 206 171 144 125 223 281 280 276 294 291 179 128 172 187 187 221 237 236 227 215 222 237 235 260 295 279 144 117 73 143 193 246 91 85 78 73 65
315 312 306 271 229 219 243 231 211 152 137 181 265 275 288 3 304 6 142 134 169 212 251 261 259 265 218 242 247 287 271 251 153 164 87 103 148 15 308 47 89 80 73 78
317 324 109 89 85 202 231 120 112 137 169 210 240 259 284 341 275 328 1 77 262 192 244 255 259 262 250 292 299 298 234 147 145 109 86 127 104 119 349 48 32 57 66 56
319 26 21 329 193 239 134 183 108 118 161 193 252 212 257 283 259 252 251 317 324 280 253 275 303 275 282 327 329 304 100 116 127 117 128 140 137 115 91 61 57 45 43 44
18 4 325 288 325 320 318 346 354 117 267 210 229 208 231 200 241 181 202 107 313 319 327 2 326 313 342 323 20 33 69 74 70 76 82 62 59 53 55 48 42 38 37 31
303 291 297 310 344 337 342 323 295 239 278 200 220 214 201 218 212 34 179 167 226 1 6 9 338 285 327 355 18 24 41 56 64 65 65 66 73 70 72 66 52 47 60 73
154 313 316 26 337 359 7 331 324 332 287 276 320 334 57 149 160 195 14 23 21 341 20 5 320 8 15 29 47 41 49 58 65 71 79 68 54 48 58 55 36 83 78 57
47 13 352 44 345 360 328 321 317 310 272 313 316 321 45 345 48 7 32 15 15 23 13 20 11 5 358 22 33 66 70 65 68 75 82 91 82 53 58 63 55 62 56 50
35 42 13 356 309 297 319 299 325 354 337 4 1 27 57 10 46 20 13 28 19 15 354 13 10 11 21 17 28 46 53 54 52 49 47 39 36 43 42 32 49 63 70 60
50 38 0 329 354 355 359 354 360 360 347 4 34 26 26 38 25 7 25 23 22 9 350 339 352 12 13 22 40 49 56 58 58 51 50 47 47 49 51 47 45 46 51 56
32 351 327 296 275 313 328 3 352 335 5 9 38 35 16 356 18 17 6 30 8 332 324 331 347 1 3 27 41 44 52 51 50 51 45 46 45 47 41 36 27 45 44 51